Date String (YYYY-MM-DD hh:mm:ss) UTC,Instrument flags,absolute air pressure of the measurement (hPa),sample flow rate (lpm),inlet stack bypass flow (lpm),air temperature of the measurement (°C),ambient temperature measured by the external sensor (°C),aerosol sample conditioner tube jacket temperature (°C),OPC LED temperature (°C),internal box temperature (°C),relative humidity of the measurement (%),span deviation,mass concentration of particles derived from Lorenz-Mie calculation of OPC scattering (μg/m³),mass concentration of particles derived from Lorenz-Mie calculation of OPC scattering (μg/m³),mass concentration of particles derived from Lorenz-Mie calculation of OPC scattering (μg/m³)
DateTimeUTC,F1_M11,P_M11,Q1_M11,Q2_M11,T1_M11,T2_M11,T3_M11,T4_M11,T5_M11,U1_M11,ZSPAN_M11,X0_M11,X2_M11,X1_M11
2023-09-01 10:00:00,SystemResetWarning,0829.4,5.00,000.00,028.1,026.6,000.0,036.6,029.7,16.3,0000.0,0007.92,0003.31,0002.48
2023-09-01 10:01:00,SystemResetWarning,0829.4,4.99,000.00,028.2,026.8,000.0,036.6,029.7,16.3,0000.0,0007.72,0003.20,0002.36
2023-09-01 10:02:00,SystemResetWarning,0829.3,4.99,000.00,028.2,026.9,000.0,036.6,029.8,16.2,0000.0,0007.41,0003.10,0002.27
2023-09-01 10:03:00,SystemResetWarning,0829.3,4.99,000.00,028.2,027.0,000.0,036.6,029.8,16.2,0000.0,0007.34,0003.06,0002.23
2023-09-01 10:04:00,SystemResetWarning,0829.4,5.00,000.00,028.3,027.1,000.0,036.6,029.9,16.2,0000.0,0007.36,0003.02,0002.21
2023-09-01 10:05:00,SystemResetWarning,0829.4,5.00,000.00,028.3,027.1,000.0,036.6,029.9,16.2,0000.0,0007.34,0002.96,0002.22
2023-09-01 10:06:00,SystemResetWarning,0829.4,5.00,000.00,028.3,027.2,000.0,036.7,029.9,16.2,0000.0,0007.13,0002.87,0002.21
2023-09-01 10:07:00,SystemResetWarning,0829.4,5.00,000.00,028.4,027.3,000.0,036.7,030.0,16.1,0000.0,0007.30,0002.84,0002.25
2023-09-01 10:08:00,SystemResetWarning,0829.3,5.00,000.00,028.4,027.3,000.0,036.7,030.0,16.1,0000.0,0007.30,0002.82,0002.29
2023-09-01 10:09:00,SystemResetWarning,0829.3,5.00,000.00,028.4,026.7,000.0,036.7,029.9,16.0,0000.0,0006.24,0002.86,0002.34
2023-09-01 10:10:00,SystemResetWarning,0829.3,4.99,000.00,028.3,025.0,000.0,036.6,029.4,16.3,0000.0,0005.04,0002.87,0002.38
2023-09-01 10:11:00,SystemResetWarning,0829.4,5.01,000.00,028.2,024.5,000.0,036.5,029.3,16.3,0000.0,0004.86,0002.87,0002.41
2023-09-01 10:12:00,SystemResetWarning,0829.3,5.01,000.00,028.1,024.7,000.0,036.5,029.1,16.4,0000.0,0004.88,0002.88,0002.41
2023-09-01 10:13:00,SystemResetWarning,0829.3,5.00,000.00,028.0,025.0,000.0,036.5,029.2,16.6,0000.0,0004.98,0002.95,0002.44
2023-09-01 10:14:00,SystemResetWarning,0829.3,5.00,000.00,028.0,025.4,000.0,036.5,029.4,16.9,0000.0,0005.16,0003.03,0002.45
2023-09-01 10:15:00,SystemResetWarning,0829.4,5.00,000.00,028.0,025.7,000.0,036.5,029.5,16.8,0000.0,0005.33,0003.10,0002.46
2023-09-01 10:16:00,SystemResetWarning,0829.3,4.99,000.00,028.0,026.0,000.0,036.5,029.5,16.8,0000.0,0005.37,0003.12,0002.47
2023-09-01 10:17:00,SystemResetWarning,0829.4,4.99,000.00,028.0,026.2,000.0,036.5,029.6,17.1,0000.0,0005.53,0003.14,0002.45
2023-09-01 10:18:00,SystemResetWarning,0829.4,5.00,000.00,028.1,026.4,000.0,036.5,029.6,17.2,0000.0,0005.30,0003.13,0002.42
2023-09-01 10:19:00,SystemResetWarning,0829.4,5.00,000.00,028.1,026.6,000.0,036.5,029.7,16.9,0000.0,0004.70,0002.99,0002.33
2023-09-01 10:20:00,SystemResetWarning,0829.4,5.00,000.00,028.1,026.8,000.0,036.6,029.7,16.5,0000.0,0004.49,0002.86,0002.22
2023-09-01 10:21:00,SystemResetWarning,0829.4,5.00,000.00,028.2,026.9,000.0,036.6,029.8,16.2,0000.0,0004.46,0002.79,0002.13
2023-09-01 10:22:00,SystemResetWarning,0829.4,5.00,000.00,028.2,027.0,000.0,036.6,029.8,16.2,0000.0,0004.46,0002.72,0002.06
2023-09-01 10:23:00,SystemResetWarning,0829.3,5.01,000.00,028.2,027.1,000.0,036.6,029.8,16.2,0000.0,0004.39,0002.66,0002.00
2023-09-01 10:24:00,SystemResetWarning,0829.3,5.00,000.00,028.3,027.1,000.0,036.6,029.9,16.2,0000.0,0004.35,0002.58,0001.95
2023-09-01 10:25:00,SystemResetWarning,0829.3,4.99,000.00,028.3,027.2,000.0,036.6,030.0,16.2,0000.0,0004.24,0002.46,0001.88
2023-09-01 10:26:00,SystemResetWarning,0829.3,4.98,000.00,028.3,027.3,000.0,036.7,030.0,16.1,0000.0,0003.97,0002.33,0001.81
2023-09-01 10:27:00,SystemResetWarning,0829.3,5.00,000.00,028.4,027.3,000.0,036.7,030.0,16.1,0000.0,0003.75,0002.26,0001.77
2023-09-01 10:28:00,SystemResetWarning,0829.3,5.01,000.00,028.4,027.4,000.0,036.7,030.1,16.1,0000.0,0003.95,0002.18,0001.72
2023-09-01 10:29:00,SystemResetWarning,0829.4,4.99,000.00,028.4,026.3,000.0,036.7,029.8,16.1,0000.0,0004.07,0002.16,0001.69
2023-09-01 10:30:00,SystemResetWarning,0829.3,5.00,000.00,028.3,024.8,000.0,036.6,029.4,16.2,0000.0,0004.24,0002.19,0001.67
2023-09-01 10:31:00,SystemResetWarning,0829.4,5.01,000.00,028.2,024.6,000.0,036.5,029.3,16.2,0000.0,0004.51,0002.29,0001.68
2023-09-01 10:32:00,SystemResetWarning,0829.4,5.00,000.00,028.1,024.8,000.0,036.5,029.2,16.4,0000.0,0004.56,0002.32,0001.69
2023-09-01 10:33:00,SystemResetWarning,0829.4,5.00,000.00,028.0,025.1,000.0,036.5,029.3,16.5,0000.0,0004.37,0002.29,0001.71
2023-09-01 10:34:00,SystemResetWarning,0829.3,5.00,000.00,028.0,025.5,000.0,036.5,029.4,16.5,0000.0,0004.28,0002.28,0001.73
2023-09-01 10:35:00,SystemResetWarning,0829.3,5.00,000.00,028.0,025.8,000.0,036.5,029.5,16.5,0000.0,0004.26,0002.30,0001.75
2023-09-01 10:36:00,SystemResetWarning,0829.4,5.00,000.00,028.1,026.1,000.0,036.5,029.6,16.5,0000.0,0004.24,0002.32,0001.77
2023-09-01 10:37:00,SystemResetWarning,0829.3,4.99,000.00,028.1,026.4,000.0,036.5,029.7,16.5,0000.0,0004.37,0002.37,0001.78
2023-09-01 10:38:00,SystemResetWarning,0829.3,5.00,000.00,028.1,026.6,000.0,036.6,029.7,16.6,0000.0,0004.42,0002.38,0001.78
2023-09-01 10:39:00,SystemResetWarning,0829.4,5.00,000.00,028.1,026.7,000.0,036.6,029.8,16.3,0000.0,0004.27,0002.40,0001.80
2023-09-01 10:40:00,SystemResetWarning,0829.3,5.00,000.00,028.2,026.9,000.0,036.6,029.8,16.5,0000.0,0003.65,0002.37,0001.81
2023-09-01 10:41:00,SystemResetWarning,0829.3,5.00,000.00,028.2,027.0,000.0,036.6,029.8,16.5,0000.0,0003.56,0002.37,0001.83
2023-09-01 10:42:00,SystemResetWarning,0829.3,4.99,000.00,028.3,027.1,000.0,036.6,029.9,16.5,0000.0,0003.45,0002.37,0001.85
2023-09-01 10:43:00,SystemResetWarning,0829.3,5.00,000.00,028.3,027.2,000.0,036.6,029.9,16.4,0000.0,0003.34,0002.34,0001.87
2023-09-01 10:44:00,SystemResetWarning,0829.3,5.00,000.00,028.3,027.3,000.0,036.6,030.0,16.3,0000.0,0003.48,0002.36,0001.87
2023-09-01 10:45:00,SystemResetWarning,0829.4,5.00,000.00,028.4,027.3,000.0,036.7,030.0,16.2,0000.0,0003.67,0002.41,0001.87
2023-09-01 10:46:00,SystemResetWarning,0829.3,5.00,000.00,028.4,027.4,000.0,036.7,030.0,16.1,0000.0,0003.72,0002.44,0001.88
2023-09-01 10:47:00,SystemResetWarning,0829.4,5.00,000.00,028.4,027.4,000.0,036.7,030.1,16.2,0000.0,0003.75,0002.43,0001.87
2023-09-01 10:48:00,SystemResetWarning,0829.4,5.00,000.00,028.5,027.5,000.0,036.8,030.1,16.1,0000.0,0003.73,0002.44,0001.87
2023-09-01 10:49:00,SystemResetWarning,0829.5,5.00,000.00,028.5,026.9,000.0,036.7,030.0,16.1,0000.0,0003.72,0002.46,0001.89
2023-09-01 10:50:00,SystemResetWarning,0829.4,5.00,000.00,028.4,025.2,000.0,036.7,029.5,16.1,0000.0,0003.96,0002.47,0001.89
2023-09-01 10:51:00,SystemResetWarning,0829.5,5.00,000.00,028.3,024.7,000.0,036.6,029.4,16.1,0000.0,0003.97,0002.46,0001.88
2023-09-01 10:52:00,SystemResetWarning,0829.4,5.01,000.00,028.2,024.8,000.0,036.6,029.3,16.3,0000.0,0003.93,0002.45,0001.88
2023-09-01 10:53:00,SystemResetWarning,0829.4,5.00,000.00,028.1,025.1,000.0,036.6,029.3,16.3,0000.0,0003.88,0002.42,0001.86
2023-09-01 10:54:00,SystemResetWarning,0829.4,5.00,000.00,028.1,025.5,000.0,036.6,029.4,16.3,0000.0,0003.99,0002.44,0001.85
2023-09-01 10:55:00,SystemResetWarning,0829.4,5.00,000.00,028.1,025.8,000.0,036.6,029.5,16.2,0000.0,0003.90,0002.40,0001.84
2023-09-01 10:56:00,SystemResetWarning,0829.4,5.00,000.00,028.1,026.1,000.0,036.6,029.6,16.5,0000.0,0003.80,0002.42,0001.84
2023-09-01 10:57:00,SystemResetWarning,0829.5,5.00,000.00,028.1,026.3,000.0,036.6,029.6,16.4,0000.0,0003.84,0002.41,0001.83
2023-09-01 10:58:00,SystemResetWarning,0829.4,5.00,000.00,028.2,026.5,000.0,036.6,029.7,16.4,0000.0,0003.95,0002.45,0001.84
2023-09-01 10:59:00,SystemResetWarning,0829.4,5.00,000.00,028.2,026.7,000.0,036.6,029.8,16.3,0000.0,0003.90,0002.45,0001.84
